User: anonymous   Login
Location: Unspecified
(0.0000°N, 0.0000°E)
Time: 23:43:11
(UTC+00:00)
Language:

Tiros 3 - Orbit

View from above orbital plane
View from above orbital plane
View from above satellite
View from above satellite

Ground track
Ground track

The orbit data is extracted from the following two-line orbital elements,

1 00162U 61017A   17348.69524415 -.00000128  00000-0  10131-4 0  9995
2 00162  47.9006  75.9884 0045108 188.0962 171.9207 14.43990515967987
Epoch (UTC): 14 December 2017 16:41:09
Eccentricity: 0.0045108
inclination: 47.9006°
perigee height: 713 km
apogee height: 777 km
right ascension of ascending node: 75.9884°
argument of perigee: 188.0962°
revolutions per day: 14.43990515
mean anomaly at epoch: 171.9207°
orbit number at epoch: 96798

The dashed part of the orbit path shows where the satellite is in the earth's shadow,  

DLR